This demonstration page uses our WeatherBlox Daily Observations layout. Learn more.

Left ArrowRight Arrow

39.92423, -83.80882

Hourly Observations for November 18, 2015

Temp ( °F °C ) Dew Point ( °F °C ) Humidity (%) Winds ( mph kmh ) Pressure ( in mb ) Visibility ( mi km ) Precip ( " mm )
12:56 am 00:56 Clear 57 13.8 32 0 39 39 ESE 15 24 30.02 1017 10 16.0934 0 0
1:56 am 01:56 Clear 57 13.8 33 0.5 40 40 SE 15 24 30 1016 10 16.0934 0 0
2:56 am 02:56 Clear 57 13.8 35 1.6 44 44 SE 15 24 30 1016 10 16.0934 0 0
3:56 am 03:56 Clear 56 13.3 37 2.7 49 49 SE 14 22 29.99 1016 10 16.0934 0 0
4:56 am 04:56 Clear 56 13.3 38 3.3 51 51 SE 15 24 29.98 1015 10 16.0934 0 0
5:56 am 05:56 Clear 56 13.3 39 3.8 53 53 SE 17 28 29.97 1015 10 16.0934 0 0
6:56 am 06:56 Clear 56 13.3 39 3.8 53 53 ESE 16 26 29.96 1015 10 16.0934 0 0
7:56 am 07:56 Sunny 55 12.7 40 4.4 57 57 ESE 16 26 29.94 1014 10 16.0934 0 0
8:56 am 08:56 Sunny 56 13.3 42 5.5 59 59 ESE 15 24 29.92 1013 10 16.0934 0 0
9:56 am 09:56 Mostly Cloudy 61 16.1 46 7.7 58 58 SE 16 26 29.91 1013 10 16.0934 0 0
10:56 am 10:56 Cloudy 62 16.6 47 8.3 58 58 SE 17 28 29.88 1012 10 16.0934 0 0
11:56 am 11:56 Cloudy 65 18.3 51 10.5 61 61 SE 18 30 29.84 1011 10 16.0934 0 0
12:56 pm 12:56 Cloudy 67 19.4 52 11.1 59 59 SE 20 31 29.8 1009 10 16.0934 0 0
1:56 pm 13:56 Cloudy with Haze 65 18.3 55 12.7 70 70 SSW 13 20 29.83 1010 5 8.0467 0 0
2:44 pm 14:44 Mostly Cloudy with Light Rain 61 16 57 14 88 88 S 12 19 29.8 1009 2 3.21868 0.03 0.762
2:56 pm 14:56 Mostly Cloudy with Rain 60 15.5 57 13.8 90 90 S 12 19 29.84 1010 1.75 2.816345 0.07 1.778
3:14 pm 15:14 Cloudy with Light Rain 61 16 57 14 88 88 S 9 15 29.8 1009 2.5 4.02335 0.05 1.27
3:19 pm 15:19 Mostly Cloudy with Light Rain 61 16 57 14 88 88 S 10 17 29.83 1010 1.75 2.816345 0.08 2.032
3:24 pm 15:24 Mostly Cloudy with Rain 61 16 57 14 88 88 S 13 20 29.8 1009 1 1.60934 0.12 3.048
3:33 pm 15:33 Mostly Cloudy with Rain 61 16 57 14 88 88 SW 14 22 29.83 1010 1.5 2.41401 0.17 4.318
3:41 pm 15:41 Cloudy with Heavy Rain 61 16 59 15 94 94 SW 10 17 29.83 1010 1.25 2.011675 0.25 6.35
3:43 pm 15:43 Cloudy with Heavy Rain 59 15 59 15 100 100 SW 10 17 29.85 1011 1 1.60934 0.27 6.858
3:56 pm 15:56 Cloudy with Rain 59 15 58 14.4 96 96 SSW 6 9 29.84 1010 1 1.60934 0.34 8.636
4:08 pm 16:08 Cloudy with Light Rain 59 15 57 14 94 94 SW 7 11 29.85 1011 1.5 2.41401 0.05 1.27
4:15 pm 16:15 Cloudy with Rain 57 14 57 14 100 100 S 6 9 29.85 1011 1.25 2.011675 0.08 2.032
4:21 pm 16:21 Mostly Cloudy with Rain 59 15 59 15 100 100 S 8 13 29.85 1011 1 1.60934 0.11 2.794
4:37 pm 16:37 Cloudy with Light Rain 59 15 59 15 100 100 SSE 9 15 29.85 1011 1.5 2.41401 0.16 4.064
4:43 pm 16:43 Cloudy with Light Rain 61 16 61 16 100 100 SSE 10 17 29.8 1009 3 4.82802 0.16 4.064
4:56 pm 16:56 Cloudy 59 15 59 15 100 100 SSE 9 15 29.83 1010 10 16.0934 0.16 4.064
5:04 pm 17:04 Mostly Cloudy 59 15 59 15 100 100 SSE 8 13 29.83 1010 10 16.0934 0.01 0.254
5:56 pm 17:56 Cloudy 59 15 59 15 100 100 ESE 20 31 29.75 1007 10 16.0934 0.03 0.762
6:56 pm 18:56 Mostly Clear 60 15.5 59 15 97 97 SE 21 33 29.75 1007 10 16.0934 0 0
7:56 pm 19:56 Cloudy 60 15.5 58 14.4 93 93 SSE 15 24 29.78 1009 10 16.0934 0.01 0.254
8:56 pm 20:56 Mostly Cloudy 62 16.6 58 14.4 87 87 SSE 15 24 29.78 1008 10 16.0934 0 0
9:56 pm 21:56 Cloudy 61 16.1 58 14.4 90 90 SSE 14 22 29.79 1009 10 16.0934 0 0
10:03 pm 22:03 Cloudy 61 16 57 14 88 88 S 15 24 29.77 1008 10 16.0934 0 0
10:34 pm 22:34 Mostly Cloudy 61 16 59 15 94 94 S 13 20 29.77 1008 10 16.0934 0 0
10:56 pm 22:56 Partly Cloudy 61 16.1 58 14.4 90 90 S 15 24 29.8 1009 10 16.0934 0 0
11:56 pm 23:56 Clear 60 15.5 58 14.4 93 93 S 10 17 29.79 1009 10 16.0934 0 0

Powered by AerisWeather